Theta_e
342 342 341 340 339 339 338 338 339 338 334 336 338 338 339 338 337 338 337 337 336 338 338 338 338 336 337 338 338 337 336 335 333 333 332 331 331 331 329 322 320 326 330 330 331 332 333 333 332 332 330 330 329 325 317 313 314 320 326 328 328 327
341 341 340 339 338 339 339 338 339 338 335 338 340 339 340 339 338 338 338 337 337 338 338 338 338 337 337 337 337 336 335 334 333 332 332 332 331 331 329 325 321 323 328 330 331 333 333 334 334 333 331 329 326 321 316 315 316 318 323 325 325 326
340 340 339 339 339 339 339 338 339 337 336 338 340 340 340 341 339 338 338 338 337 337 338 338 337 337 337 337 336 336 335 335 333 332 333 332 331 331 329 327 325 324 328 331 332 333 334 334 335 335 333 329 325 322 320 320 320 320 323 325 326 327
341 341 340 340 339 339 339 339 338 335 336 338 339 340 340 341 339 339 338 337 337 337 337 337 336 337 337 337 337 336 336 335 333 332 333 332 331 332 329 327 329 329 330 331 332 333 334 335 334 334 333 329 326 324 323 322 321 322 325 328 329 327
341 341 340 340 340 340 339 338 336 335 337 338 339 339 340 340 339 339 338 336 337 337 336 335 335 337 337 337 336 336 335 333 331 331 333 333 332 332 330 328 329 330 331 331 332 334 335 336 334 333 332 329 327 326 324 324 324 322 323 325 327 328
339 340 340 340 340 339 338 336 336 336 338 338 338 338 338 338 338 339 338 337 337 337 336 333 333 335 335 335 335 333 332 331 329 330 332 333 332 332 332 329 328 329 330 331 333 334 336 336 334 332 330 329 328 328 327 327 326 324 322 322 325 328
337 336 336 338 339 338 337 336 336 337 337 338 338 337 337 338 338 338 338 337 336 337 336 333 333 334 334 333 333 331 330 330 328 329 332 333 332 332 332 331 329 328 329 331 333 335 337 336 334 332 330 329 330 330 330 329 328 326 325 324 326 328
335 333 332 334 337 337 336 336 336 337 336 337 337 336 336 338 338 338 338 337 335 337 337 334 333 335 334 332 332 331 330 329 328 329 331 332 332 331 332 332 332 330 330 333 333 335 337 335 334 332 331 330 331 332 330 330 329 329 327 327 328 327
335 334 333 333 334 335 335 336 337 337 336 336 336 336 336 338 339 338 338 336 335 337 337 335 335 335 334 333 332 331 330 329 329 329 330 331 331 331 332 331 332 332 332 333 334 336 336 335 333 331 332 332 332 332 330 330 330 330 329 328 329 329
335 335 335 333 333 334 335 337 338 337 337 336 336 336 337 338 338 338 338 336 335 337 337 335 336 335 334 333 332 330 332 332 330 330 330 330 330 331 331 331 332 333 333 333 334 336 336 334 333 331 332 332 332 332 331 331 331 330 329 328 329 329
337 337 336 334 333 334 335 337 339 339 338 337 337 338 338 338 337 337 338 336 335 336 336 336 335 334 333 332 331 332 333 333 331 331 332 331 330 330 330 331 331 332 332 332 333 336 335 333 332 331 330 331 332 332 331 331 330 329 328 328 329 328
339 338 337 334 334 335 335 336 339 339 338 337 338 338 338 337 336 336 336 335 335 336 336 336 335 334 333 332 332 334 334 334 333 332 332 332 332 330 329 331 331 331 332 331 333 335 334 333 332 331 330 330 331 332 332 331 330 329 328 329 328 327
338 338 338 335 335 335 335 336 338 338 337 337 338 338 337 336 335 335 335 335 335 335 336 336 335 334 333 333 333 334 334 334 333 332 332 332 333 332 330 331 331 332 332 332 333 334 333 332 331 330 330 330 330 332 333 332 330 328 329 329 327 326
337 338 338 336 335 335 335 336 337 338 337 337 338 337 337 337 336 336 335 335 335 335 336 336 334 333 333 333 333 334 334 333 333 333 333 333 333 333 332 332 332 332 332 332 333 333 332 331 331 330 330 329 330 332 333 332 329 328 328 328 326 324
336 337 338 337 334 334 335 336 337 337 337 336 337 337 337 337 337 336 335 335 335 335 335 335 334 334 334 333 333 333 333 332 333 334 334 334 334 333 334 333 333 332 332 332 332 331 331 331 330 330 330 330 331 332 333 331 329 328 327 327 325 324
335 337 337 337 334 334 335 336 336 337 336 337 337 337 337 337 337 336 336 336 336 335 335 335 334 334 334 333 333 333 333 333 334 335 334 333 334 333 334 333 333 333 332 332 332 330 330 330 330 330 330 331 332 332 333 332 330 329 326 325 326 326
335 337 337 336 335 335 336 337 337 336 336 337 337 337 337 337 337 336 336 336 336 336 335 335 334 334 334 333 333 332 332 331 332 335 335 334 334 334 333 333 333 333 332 332 331 330 330 330 330 330 330 331 332 332 332 332 332 330 327 325 326 326
335 337 337 337 336 336 337 337 337 337 337 338 338 338 337 337 337 336 336 336 336 336 336 335 335 334 333 332 332 332 329 328 330 334 334 334 334 334 334 333 332 332 332 331 331 330 329 330 329 329 330 332 332 332 333 332 332 331 329 327 327 328
335 337 338 337 337 337 338 337 337 338 338 338 338 338 337 336 337 337 337 336 336 336 336 335 334 332 332 332 331 329 327 327 330 333 334 334 333 334 333 332 332 331 331 331 331 330 329 329 329 329 331 332 332 332 332 332 332 331 330 329 328 329
336 337 337 338 338 338 337 337 337 338 338 338 337 337 337 336 336 337 337 337 336 335 335 334 333 331 330 330 329 327 325 328 333 333 332 333 333 334 333 332 332 331 331 331 331 330 329 329 329 329 331 332 332 332 332 332 331 331 330 330 329 330
337 338 338 337 337 337 337 337 337 338 337 336 336 336 336 335 335 336 337 336 335 334 334 334 333 331 329 330 330 328 328 331 333 332 331 332 333 334 333 332 332 331 331 331 330 330 330 329 329 330 330 331 330 330 331 332 331 331 330 330 330 330
338 338 338 337 337 337 337 336 337 337 336 335 336 335 335 335 335 336 336 336 335 334 334 334 334 332 330 331 329 328 331 333 332 332 331 332 333 333 332 332 332 331 330 330 330 330 330 330 330 330 330 330 329 328 329 330 330 330 330 330 330 330
338 338 338 338 338 338 337 336 336 336 336 335 334 334 334 335 335 335 335 336 335 335 334 333 333 332 329 331 331 330 333 333 332 332 332 332 333 332 332 332 332 332 330 330 330 330 330 330 330 330 330 330 330 329 329 329 329 329 329 330 331 331
338 337 338 338 338 338 337 336 335 335 334 334 333 333 334 333 334 335 335 336 335 334 334 332 332 331 329 330 332 332 332 332 332 332 332 333 333 332 332 331 331 332 331 330 330 330 331 331 330 330 329 329 329 329 330 329 328 329 329 329 330 330
339 338 338 338 338 337 337 336 334 333 333 333 333 333 333 333 334 334 335 335 335 333 333 331 329 329 330 330 331 332 331 332 332 332 332 333 333 333 332 332 332 332 331 330 330 330 331 331 330 330 329 329 329 330 331 329 328 329 329 329 329 328
339 339 338 338 338 337 337 336 335 333 333 332 332 332 332 333 333 334 334 335 334 333 332 330 327 327 329 330 331 331 332 332 332 332 331 332 333 333 332 332 332 332 332 331 330 330 331 331 330 329 329 329 329 330 329 328 329 330 328 328 329 328
339 339 339 338 338 337 337 337 335 333 333 332 332 332 332 332 333 333 334 334 334 332 331 329 327 328 331 332 332 332 332 333 333 331 330 332 333 332 332 332 332 332 332 331 331 330 331 331 330 330 330 328 329 329 328 328 329 329 329 328 327 327
339 338 339 338 337 337 337 337 335 334 333 332 332 332 332 332 332 332 333 334 334 332 331 330 329 331 332 333 333 332 332 333 333 331 330 331 333 332 332 332 332 333 333 332 331 330 331 332 330 330 331 330 330 329 328 328 328 327 329 329 327 327
338 338 338 338 337 337 337 336 335 335 334 333 332 332 332 332 331 331 332 333 334 333 333 332 331 332 333 333 333 331 331 332 332 330 329 331 333 332 331 331 332 332 332 332 331 331 331 331 330 330 331 331 330 329 328 328 328 326 327 328 329 327
337 337 337 337 337 337 337 336 335 335 334 333 333 332 332 332 331 331 332 332 333 333 333 332 331 332 333 333 332 332 332 332 331 330 330 331 333 332 331 330 331 332 332 332 331 331 331 331 330 330 331 331 330 328 327 327 327 326 326 326 328 326
336 337 337 337 337 336 336 336 335 334 334 333 333 332 332 332 331 331 331 332 332 333 332 331 331 332 332 332 333 333 332 331 331 331 331 332 332 332 331 330 330 331 331 332 332 331 331 330 330 330 330 330 329 328 327 327 326 326 326 324 324 322
336 337 338 337 337 336 335 335 334 334 334 334 333 332 332 332 331 331 331 332 332 333 332 331 331 332 333 333 333 332 332 331 331 332 332 332 332 332 331 330 330 331 331 331 332 332 331 331 331 330 330 329 329 328 328 328 327 326 326 323 322 320
336 337 337 337 337 336 335 334 334 334 334 334 334 332 332 332 331 331 332 332 332 333 332 332 332 332 333 333 333 332 332 332 332 332 332 332 331 331 331 330 330 331 331 330 331 332 331 331 331 330 330 329 329 328 328 328 327 327 326 322 320 318
335 336 337 336 335 334 334 335 334 334 334 333 333 332 331 331 331 332 332 332 331 331 332 332 332 333 333 333 332 332 332 332 332 331 331 331 331 331 331 330 329 330 331 331 331 332 331 331 331 330 329 329 329 328 328 328 327 327 326 322 319 318
329 331 333 332 331 333 334 334 334 334 334 333 332 332 331 331 331 332 331 331 330 331 331 331 332 333 334 333 332 333 333 332 332 331 331 331 330 330 330 330 329 330 331 332 332 331 331 330 330 330 330 328 328 328 328 328 327 327 326 323 320 319
325 326 328 329 330 332 333 332 330 330 333 334 333 332 331 331 331 331 331 330 330 331 331 331 333 333 332 332 332 333 333 332 332 331 331 330 330 330 330 330 330 330 331 332 332 331 331 331 330 330 329 329 328 328 328 328 328 327 327 325 322 319
325 326 327 327 329 329 330 330 329 327 329 331 333 332 331 331 331 331 331 331 330 331 332 332 333 333 332 332 333 333 332 332 332 331 331 331 330 330 330 330 330 330 331 332 332 332 331 332 331 330 329 329 327 328 328 327 327 327 327 326 324 321
Wind_Speed
23 23 23 23 22 22 20 20 19 18 19 19 18 18 18 18 19 18 16 15 15 16 17 16 14 14 14 14 13 12 11 9 8 8 8 9 11 12 12 14 18 21 19 16 15 15 17 18 16 13 14 13 11 10 11 13 16 18 20 19 17 16
23 23 24 24 23 22 22 21 20 19 20 19 18 18 18 19 19 18 16 16 16 16 17 16 15 15 14 13 12 11 9 8 8 8 9 10 11 12 12 13 17 20 20 17 15 15 15 15 14 11 10 11 11 12 13 14 15 17 18 17 16 15
24 25 25 25 25 24 23 22 21 20 21 20 18 18 19 19 20 19 18 17 16 16 16 16 15 14 14 12 11 10 9 8 8 8 10 11 11 13 14 14 17 20 20 17 15 14 12 11 10 9 8 11 11 13 13 14 14 15 17 16 15 15
25 25 25 26 26 25 25 24 23 22 22 21 19 19 19 19 20 20 18 17 16 15 15 14 13 13 13 12 11 10 9 8 9 9 11 13 13 14 15 16 18 20 20 17 15 12 10 8 9 9 8 12 13 13 13 14 13 14 15 15 14 13
24 24 24 25 25 25 25 25 24 24 23 22 20 19 18 18 19 19 19 18 17 15 14 14 13 14 14 13 12 11 10 9 10 11 12 14 14 14 16 16 18 19 18 15 13 10 7 7 9 9 11 14 14 13 14 14 12 12 14 14 13 13
25 24 24 24 24 24 24 25 25 24 23 21 20 19 19 18 19 19 20 19 18 17 15 15 15 15 15 14 13 12 11 10 11 12 14 15 15 14 15 16 17 17 16 14 12 8 5 6 8 10 14 15 14 14 14 14 13 13 13 14 13 13
26 25 24 24 24 23 23 24 24 23 22 21 21 20 20 19 19 19 21 20 19 19 18 17 16 16 16 15 13 12 11 10 11 14 15 15 16 14 13 15 16 16 14 12 10 5 3 3 6 9 14 15 14 13 13 13 14 14 14 14 13 13
25 24 24 25 25 23 23 23 23 22 21 22 21 22 21 20 20 20 20 20 19 20 19 19 18 16 16 15 13 12 11 10 12 15 15 15 16 15 13 13 14 15 13 9 7 4 1 1 5 7 12 14 13 13 13 14 14 14 13 13 14 13
25 24 24 25 25 24 23 22 22 22 21 22 21 21 20 19 19 20 20 20 20 21 21 21 19 17 17 16 14 13 11 11 14 15 14 15 15 15 14 13 13 13 11 8 6 5 4 4 5 7 11 13 12 12 13 14 13 13 13 13 13 13
25 25 24 24 25 25 23 22 21 21 21 21 21 20 20 19 19 20 20 19 19 20 21 22 20 19 19 17 16 15 13 12 14 14 14 14 14 14 13 13 13 12 9 7 6 7 7 6 6 8 12 12 11 11 12 13 12 12 12 13 13 13
26 26 25 25 25 25 23 22 21 21 21 21 20 20 21 20 20 20 20 20 20 19 21 23 22 21 20 19 18 17 15 13 14 14 13 12 12 13 13 12 12 11 9 8 9 10 9 8 8 9 11 12 12 11 12 13 12 11 11 12 13 13
27 27 26 26 26 26 24 23 22 22 22 21 21 21 21 21 20 20 20 20 20 19 21 23 22 22 21 20 19 18 15 13 13 13 12 10 9 11 12 11 10 10 9 11 12 12 10 10 10 10 11 13 13 13 13 13 12 11 11 12 13 13
26 28 28 27 27 26 25 24 23 23 23 22 21 21 21 21 20 21 21 22 21 20 21 23 23 22 20 20 19 18 15 14 13 12 12 10 8 10 12 10 10 10 11 13 14 14 12 11 12 11 11 12 14 15 14 12 12 12 12 12 13 13
27 29 30 29 28 27 26 25 25 24 24 23 23 22 21 21 21 21 22 23 22 21 22 23 23 22 21 20 19 17 16 15 14 11 11 11 9 11 13 11 12 12 12 15 16 15 15 14 13 11 11 12 14 15 14 12 13 13 13 13 13 13
28 30 31 31 29 28 27 27 27 27 26 25 24 23 22 22 22 22 23 23 22 22 23 24 24 23 22 20 19 18 17 17 15 12 12 13 11 13 14 13 13 14 15 16 17 17 16 15 14 12 12 12 15 16 15 14 14 13 13 14 13 12
27 29 31 31 30 29 28 29 28 27 27 26 25 24 23 22 22 23 23 23 23 23 24 25 24 23 23 22 20 19 17 16 14 12 12 12 11 12 14 13 13 13 16 17 17 16 15 15 14 14 14 15 16 17 16 16 16 14 13 13 13 12
22 27 30 31 31 30 29 29 28 27 26 26 25 24 23 21 22 23 24 23 23 24 24 25 25 24 24 24 22 20 17 15 14 12 12 13 12 12 13 15 16 14 15 17 17 17 16 16 16 16 16 16 17 17 17 17 16 14 13 13 13 11
22 25 29 30 31 29 28 27 26 25 24 24 24 24 23 22 21 22 23 23 23 24 25 26 26 25 24 25 23 20 18 16 15 13 12 12 12 12 12 15 18 15 13 15 17 18 18 18 18 17 17 17 16 17 17 16 15 14 13 13 12 11
25 24 27 29 29 27 26 25 23 22 22 22 22 23 23 23 23 22 23 23 23 23 25 26 26 24 22 22 20 18 18 17 15 14 13 11 10 12 12 13 15 15 14 13 15 18 19 19 18 18 17 16 15 16 16 14 13 13 13 13 13 11
24 24 26 28 29 26 23 23 22 22 22 22 22 22 22 22 23 23 23 24 23 23 25 26 24 22 19 17 17 17 18 17 16 15 14 12 11 11 12 13 13 16 18 15 15 17 20 21 20 17 16 15 14 13 13 13 12 14 16 17 15 12
26 25 27 28 29 27 24 23 23 24 23 22 22 21 21 21 23 24 24 24 24 24 26 25 22 20 19 17 17 17 16 17 16 16 15 13 12 12 12 13 14 17 19 19 18 18 21 23 21 16 12 11 12 12 12 13 13 16 19 19 16 14
29 29 29 30 30 29 28 26 26 27 24 23 22 20 21 21 22 23 24 23 24 26 26 24 22 20 19 18 17 16 16 17 17 16 14 13 14 14 14 15 16 17 19 20 21 21 24 23 18 15 13 9 7 7 9 11 12 13 14 15 15 14
33 32 31 32 32 31 30 27 25 25 24 23 23 21 20 20 21 22 23 23 24 26 26 23 22 20 19 17 17 17 16 17 17 16 16 15 15 16 15 17 17 17 19 20 20 24 26 21 18 17 13 7 3 4 5 6 8 10 11 11 13 14
34 35 35 35 35 31 29 26 22 21 21 21 21 21 19 19 20 20 22 23 24 25 24 23 21 20 19 18 17 17 17 17 16 16 16 15 15 17 16 17 20 20 22 22 20 24 24 18 21 21 10 3 3 3 2 4 7 8 10 12 12 13
37 37 37 38 36 32 28 26 21 17 17 16 16 18 19 19 20 21 22 23 24 23 23 23 21 19 19 18 18 17 17 16 15 14 14 14 16 17 16 18 21 22 25 26 24 26 22 16 24 25 14 7 5 2 2 6 8 5 8 11 10 11
36 36 35 35 35 32 29 27 23 20 20 18 16 18 21 22 23 23 23 23 23 22 22 22 20 19 18 18 18 18 17 16 15 15 13 14 17 17 17 18 21 22 25 27 26 27 22 19 25 21 14 13 7 3 7 10 7 3 5 7 8 10
34 34 34 33 33 33 30 28 26 24 24 23 20 20 21 23 24 25 24 24 23 22 22 21 20 19 18 18 18 17 16 16 17 15 13 15 17 17 18 19 21 23 25 27 27 28 23 21 25 18 12 13 5 5 16 17 7 4 4 3 6 10
30 32 34 33 32 32 31 29 29 26 24 24 23 21 21 21 23 23 23 24 24 22 22 21 20 20 19 18 17 15 15 16 17 16 16 18 18 17 18 19 22 24 25 27 27 29 27 24 26 19 13 13 7 8 20 19 13 11 6 2 4 7
24 29 32 32 31 31 31 30 30 28 25 23 22 22 21 21 21 22 23 24 24 23 22 21 20 20 19 18 16 15 15 17 17 18 19 19 18 17 18 20 24 25 25 27 27 28 28 27 27 22 16 14 9 13 18 15 15 15 8 5 4 4
22 27 28 29 30 30 31 30 30 29 26 23 20 20 20 21 21 22 23 24 23 23 23 22 21 20 19 18 16 15 16 17 18 18 20 20 18 17 17 19 23 26 26 25 25 27 27 27 27 22 18 16 14 17 15 10 13 15 9 6 4 4
22 25 26 28 29 30 30 30 30 29 27 25 22 21 21 22 22 23 23 24 24 24 23 23 22 22 20 18 17 16 17 17 18 19 20 20 19 17 17 19 21 24 25 24 23 24 26 27 26 21 18 17 17 21 19 13 16 18 12 8 6 5
23 23 26 29 30 30 30 29 29 29 28 26 24 23 24 24 24 25 24 24 24 24 23 23 23 22 21 19 18 17 17 18 19 21 21 19 18 17 17 19 21 22 23 24 23 22 25 27 25 21 19 18 19 23 23 20 22 22 18 16 15 9
25 24 27 31 30 28 28 28 27 27 27 26 25 25 25 26 26 27 26 26 26 25 25 24 22 22 21 19 18 17 17 19 20 21 20 18 17 17 19 19 20 21 21 22 24 23 24 27 25 21 19 19 19 22 20 19 23 24 20 21 21 13
18 21 25 28 26 24 24 25 26 26 26 26 26 26 26 26 27 28 27 27 27 27 26 24 23 23 20 18 18 18 17 18 19 19 18 17 16 18 19 18 18 19 19 20 23 23 22 25 26 22 19 19 19 19 18 18 22 24 22 23 23 18
10 7 15 19 20 22 21 18 20 22 25 26 27 27 27 27 28 28 27 27 27 27 25 25 24 22 20 18 19 18 17 17 17 17 17 17 17 18 18 16 17 18 18 19 21 22 22 23 25 23 20 19 19 19 17 17 22 23 23 25 25 25
11 9 7 12 17 25 24 19 15 15 21 26 27 27 26 27 28 28 27 26 26 26 24 24 23 21 19 20 20 19 18 17 16 16 16 17 18 18 18 17 17 17 17 18 18 20 21 21 23 24 22 18 18 19 18 17 22 23 22 24 26 27
12 7 10 13 15 21 23 22 16 12 16 24 26 27 27 27 28 27 26 25 24 24 23 22 21 19 19 20 20 18 18 17 16 15 15 17 17 17 17 18 18 19 18 17 18 19 20 20 21 23 23 20 18 20 19 18 21 22 21 23 25 26
Wind_Direction
169 169 172 173 174 173 173 173 172 173 170 165 163 163 162 162 161 159 158 156 156 159 161 161 160 161 158 156 153 146 140 133 124 118 128 135 133 132 129 134 148 153 145 136 126 111 98 88 89 109 125 124 114 102 101 108 111 112 114 116 119 119
172 173 176 177 176 176 177 178 178 176 172 170 170 169 169 168 167 164 163 164 163 161 162 164 163 164 163 160 158 154 150 144 135 128 135 141 140 138 136 135 144 151 148 139 130 115 99 89 84 89 119 125 110 108 109 109 110 112 117 121 121 117
176 179 180 180 179 179 180 181 181 179 174 173 176 176 175 174 171 169 169 170 169 167 166 167 169 170 168 166 166 164 160 156 151 143 142 147 146 144 142 140 141 145 147 141 132 118 96 84 74 70 116 135 118 115 114 110 110 111 113 114 115 116
181 183 184 183 182 182 183 184 183 179 176 177 179 179 178 175 174 173 172 173 173 172 171 170 172 174 173 174 174 171 170 169 167 157 152 152 150 149 147 146 145 145 147 142 134 118 90 72 60 62 117 141 129 122 119 113 110 109 112 115 117 118
185 186 187 185 184 186 186 186 184 179 178 180 179 178 178 175 176 177 175 174 176 175 174 172 174 176 178 182 180 178 180 182 178 169 161 159 156 153 152 153 151 150 148 143 136 117 81 60 54 78 126 141 136 127 122 115 111 112 116 120 120 118
188 188 189 188 187 188 189 188 185 181 181 180 179 178 178 178 179 180 178 177 179 179 179 176 176 178 182 186 184 181 182 186 184 176 168 164 162 158 155 158 158 157 152 146 141 116 74 57 59 101 137 143 139 131 124 120 116 116 117 117 118 119
190 191 193 193 190 189 192 192 188 185 184 181 180 180 180 182 183 182 180 181 184 183 183 182 179 180 184 186 185 181 180 186 185 178 173 170 168 162 158 159 162 163 156 151 149 123 72 64 73 117 147 148 142 135 131 130 123 120 119 115 115 118
193 192 194 194 192 193 195 195 192 190 189 185 182 183 183 184 185 185 183 183 185 185 186 188 185 184 185 185 184 179 173 177 176 174 174 174 171 166 163 160 160 164 161 156 152 143 158 121 96 129 157 155 146 141 138 135 127 123 123 119 116 115
197 194 194 193 193 195 196 196 194 194 194 189 186 186 187 187 187 186 185 184 184 185 187 189 188 187 184 181 179 172 164 162 163 167 172 175 175 171 168 162 156 157 160 158 156 170 190 161 115 134 162 161 148 143 140 137 131 127 128 124 120 117
204 199 196 194 194 194 195 197 197 197 197 194 190 189 190 190 190 188 186 186 187 187 188 187 186 185 181 178 174 166 161 157 156 161 166 169 173 176 176 168 160 159 166 179 192 190 178 161 140 142 161 168 162 151 144 140 136 134 134 129 125 126
211 204 198 197 196 194 195 198 198 199 201 199 195 193 193 194 193 193 191 191 193 192 190 188 186 184 179 175 172 166 163 163 161 160 158 160 166 174 179 176 169 170 184 209 212 193 176 175 170 155 160 174 177 167 154 146 143 143 143 137 132 131
216 206 201 201 198 196 197 200 200 201 205 204 200 196 195 196 196 196 197 197 197 196 193 190 187 185 180 176 174 169 167 168 168 168 168 166 163 167 173 178 183 190 208 220 210 188 180 189 185 165 160 174 181 173 162 151 147 149 150 145 138 131
218 204 201 203 201 198 199 202 203 203 207 208 204 200 198 199 200 199 200 201 199 196 194 193 190 187 183 178 176 172 174 177 177 180 182 180 176 176 180 186 193 199 207 208 196 181 180 184 184 173 163 174 182 175 163 154 151 153 155 149 137 130
217 202 200 204 203 201 200 204 206 205 206 209 209 205 202 203 205 203 201 201 199 197 196 195 193 191 186 180 178 178 181 181 176 174 174 176 174 174 180 179 176 176 182 189 184 177 178 174 176 177 168 174 182 176 165 155 153 155 156 148 137 133
213 201 200 204 205 203 202 206 207 205 205 208 211 211 208 207 208 207 204 201 200 199 198 196 194 191 188 182 180 181 179 173 167 164 170 177 172 165 170 169 167 168 167 174 176 172 174 168 167 173 170 173 179 176 166 154 154 157 155 148 140 141
209 200 201 205 207 205 205 207 207 206 205 207 211 213 213 210 208 207 206 203 201 200 197 195 194 193 189 184 182 179 171 165 163 168 179 185 178 168 169 164 166 175 168 166 171 169 171 169 166 170 171 172 174 173 165 158 157 155 152 150 147 149
209 204 204 205 207 207 208 209 209 208 207 208 210 212 212 208 206 204 206 205 202 199 197 197 196 194 189 184 181 175 165 162 168 176 181 181 177 175 174 160 157 173 175 168 168 165 164 168 168 169 170 170 170 170 168 165 163 159 155 154 155 156
207 209 208 207 208 209 211 212 213 213 210 210 211 212 210 207 206 204 205 205 203 199 197 198 196 193 189 183 178 176 172 170 175 182 178 170 173 180 177 160 153 165 179 174 172 167 162 163 163 164 165 163 165 169 171 168 167 168 165 161 159 159
202 208 207 208 209 210 213 214 214 213 213 213 212 210 209 209 209 207 205 204 203 200 197 197 196 190 185 179 177 182 182 179 183 188 182 173 176 184 179 168 163 168 174 176 177 170 163 161 158 160 160 155 159 167 171 172 177 179 176 172 168 168
193 203 203 204 206 207 211 212 212 212 212 213 210 208 210 211 210 208 206 204 201 199 196 197 198 191 186 183 179 184 184 183 188 191 191 187 187 196 189 177 172 168 164 163 168 166 163 160 152 150 152 151 155 162 165 171 182 185 183 182 177 176
186 196 198 199 202 203 202 201 206 210 210 211 210 208 208 208 209 206 205 205 200 196 196 197 198 194 190 190 183 184 189 192 194 193 194 188 185 197 191 174 168 167 164 160 161 165 163 155 143 139 142 147 151 152 157 169 180 184 182 182 181 179
186 193 197 200 202 202 201 199 203 208 209 209 211 210 207 204 206 206 205 204 198 194 194 192 191 190 186 187 188 192 197 196 195 191 186 180 183 192 185 174 170 170 169 165 165 167 164 156 145 145 145 134 127 131 148 168 179 181 179 179 180 176
189 194 198 202 204 205 204 202 203 209 211 211 212 211 207 204 203 205 206 204 198 196 194 187 185 189 188 190 196 198 195 193 193 188 182 180 187 195 188 178 178 178 171 165 165 168 168 163 154 150 144 136 124 118 139 165 168 168 173 176 180 177
190 195 198 203 207 207 205 202 202 206 208 209 212 211 210 210 206 206 205 203 200 196 192 187 187 192 194 196 201 202 198 195 194 189 186 186 192 199 196 184 181 182 175 166 165 170 172 171 165 156 141 108 114 130 163 172 156 160 173 173 177 183
188 194 199 205 208 207 202 199 197 192 191 194 200 202 205 208 208 208 206 204 203 197 190 190 194 197 198 202 206 207 204 200 199 194 191 194 198 202 203 192 184 184 182 176 174 176 179 183 178 168 156 146 132 151 208 160 150 158 178 175 175 184
186 192 199 205 208 205 199 196 194 186 181 181 185 194 201 204 205 207 207 206 205 202 197 197 200 202 202 206 208 208 207 204 202 199 197 203 205 202 199 195 190 189 189 185 179 178 182 186 183 178 171 170 165 193 174 152 149 154 170 180 184 187
186 192 198 204 208 205 199 198 199 194 189 186 187 196 204 206 205 206 208 206 203 201 200 200 201 202 204 205 206 209 210 209 208 206 206 206 209 208 200 196 196 194 192 190 183 180 183 184 184 191 197 187 197 206 173 163 161 153 144 175 191 191
188 194 199 203 207 204 199 199 201 200 197 193 194 198 202 205 205 206 208 206 203 201 199 198 197 199 201 201 205 213 215 212 211 212 214 211 211 211 203 198 197 196 195 195 192 186 185 184 186 195 200 197 216 195 173 169 164 152 133 119 169 185
196 199 201 204 206 204 201 201 201 202 200 196 195 197 199 203 205 206 207 205 203 202 198 196 196 197 198 200 207 217 217 211 210 214 216 213 209 207 204 200 196 195 196 199 199 194 190 187 188 191 191 192 192 169 165 167 162 152 138 137 155 173
204 203 206 207 207 204 203 203 202 203 201 194 190 190 194 200 202 202 202 202 202 200 197 195 195 197 198 201 208 216 216 210 208 213 216 214 208 205 204 201 198 197 196 198 200 199 197 193 190 191 190 187 174 160 156 154 159 157 145 137 139 156
209 209 208 205 204 204 204 204 203 203 202 197 190 186 186 191 196 198 198 199 200 198 197 195 194 197 201 204 209 215 217 212 208 210 215 215 209 205 202 198 199 198 196 198 199 201 200 195 189 189 192 192 184 173 167 167 168 164 155 142 132 142
208 211 206 201 201 204 204 203 204 205 205 202 197 191 185 186 192 197 197 197 197 196 196 196 196 199 202 207 212 216 217 215 211 210 212 213 209 205 201 195 196 196 197 200 201 202 202 196 190 189 189 193 193 184 178 177 175 171 168 159 149 142
205 204 203 200 200 202 204 205 206 207 207 206 204 199 193 189 191 196 199 198 197 196 196 196 197 198 199 205 210 212 212 209 209 210 210 211 207 202 198 195 195 193 195 202 203 202 204 199 193 190 188 189 190 185 183 183 179 177 173 160 150 143
222 210 200 196 198 203 207 209 210 210 210 210 208 204 201 197 195 197 200 200 199 199 198 197 197 195 193 197 202 206 206 206 208 209 208 209 204 198 197 196 195 193 195 201 201 200 203 202 197 193 190 189 187 185 186 187 183 180 176 166 156 147
300 261 205 193 197 205 210 216 219 216 213 213 212 207 205 203 200 199 200 201 201 202 202 200 198 196 193 194 199 201 205 208 210 207 208 209 204 198 198 198 197 199 200 200 200 200 202 202 201 199 195 192 192 191 189 188 188 186 183 177 168 158
321 334 251 220 205 201 204 214 230 231 218 215 214 209 205 202 201 200 200 201 202 203 202 201 200 199 196 195 196 199 205 210 208 206 206 205 200 196 197 200 201 202 203 200 199 202 202 203 205 204 200 198 198 198 195 191 191 191 190 187 180 170
263 263 245 245 222 202 200 206 217 237 227 216 213 210 205 200 200 201 201 201 201 202 201 201 200 195 189 188 191 196 202 203 202 202 200 198 197 196 199 204 202 200 202 201 201 203 204 204 205 204 203 202 204 203 199 194 193 193 194 193 188 182